Weather History for Pleasanton, TX

Change the Weather History Date:

Sunday, June 30, 2013

  Actual Average Record
Temperature  
Mean Temperature 79 °F -  
Max Temperature 87 °F 94 °F 99 °F (1992)
Min Temperature 70 °F 74 °F 70 °F (2011)
Cooling Degree Days 14    
Growing Degree Days 29 (Base 50)    
Moisture  
Dew Point 68 °F    
Average Humidity 71    
Maximum Humidity 93    
Minimum Humidity 42    
Precipitation  
Precipitation 0.69 in - - ()
Sea Level Pressure  
Sea Level Pressure 29.88 in    
Wind  
Wind Speed 4 mph (NE)    
Max Wind Speed 15 mph    
Max Gust Speed 31 mph    
Visibility 10 miles    
Events Rain , Thunderstorm    
Averages and records for this station are not official NWS values.
T = Trace of Precipitation, MM = Missing Value Source: NWS Daily Summary

Daily Weather History Graph

Daily Weather History Graph

Search for Another Location

Airport:

Trip Planner

Search our weather history database for the weather conditions in past years. The results will help you decide how hot, cold, wet, or windy it might be!

Date:

Astronomy

Jun. 30, 2013 Rise Set
Actual Time 6:38 AM CDT 8:36 PM CDT
Civil Twilight 6:11 AM CDT 9:03 PM CDT
Nautical Twilight 5:39 AM CDT 9:36 PM CDT
Astronomical Twilight 5:04 AM CDT 10:11 PM CDT
Moon 1:15 AM CDT (6/30) 2:12 PM CDT (6/30)
Length of Visible Light 14h 51m
Length of Day
13h 57m
Last Quarter, 45% of the Moon is Illuminated
Jun 30
Last Quarter
Jul 8
New
Jul 15
First Quarter
Jul 22
Full
Jul 29
Last Quarter

Hourly Weather History & Observations

Time (CDT) Temp. Heat Index Dew Point Humidity Pressure Visibility Wind Dir Wind Speed Gust Speed Precip Events Conditions
12:15 AM 88.9 °F 89.7 °F 62.8 °F 42% 29.78 in 10.0 mi SSE 5.8 mph - N/A   Clear
12:35 AM 88.7 °F 89.4 °F 62.8 °F 42% 29.78 in 10.0 mi ESE 4.6 mph - N/A   Clear
1:15 AM 86.5 °F 87.3 °F 62.6 °F 45% 29.79 in 10.0 mi East 3.5 mph - N/A   Clear
1:35 AM 86.0 °F 86.6 °F 62.4 °F 45% 29.79 in 10.0 mi East 3.5 mph - N/A   Clear
1:55 AM 84.9 °F 85.9 °F 63.1 °F 48% 29.80 in 10.0 mi East 4.6 mph - N/A   Clear
2:15 AM 84.9 °F 85.9 °F 63.1 °F 48% 29.80 in 10.0 mi Calm Calm - N/A   Scattered Clouds
2:35 AM 84.0 °F 84.9 °F 63.0 °F 49% 29.80 in 10.0 mi East 3.5 mph - N/A   Scattered Clouds
2:55 AM 83.1 °F 84.0 °F 63.0 °F 50% 29.81 in 10.0 mi Calm Calm - N/A   Scattered Clouds
3:15 AM 82.4 °F 83.7 °F 63.9 °F 53% 29.81 in 10.0 mi Calm Calm - N/A   Mostly Cloudy
3:35 AM 81.5 °F 83.3 °F 65.1 °F 57% 29.81 in 10.0 mi Calm Calm - N/A   Scattered Clouds
3:55 AM 80.6 °F 82.5 °F 65.5 °F 60% 29.81 in 10.0 mi WSW 5.8 mph - N/A Thunderstorm Clear
4:15 AM 79.3 °F - 65.8 °F 63% 29.80 in 10.0 mi Calm Calm - N/A   Clear
4:35 AM 79.5 °F - 65.1 °F 61% 29.79 in 10.0 mi Calm Calm - N/A Thunderstorm Clear
4:55 AM 79.0 °F - 65.1 °F 62% 29.81 in 10.0 mi NNE 8.1 mph - N/A   Clear
5:15 AM 82.2 °F 83.5 °F 63.5 °F 53% 29.81 in 10.0 mi Calm Calm - N/A Thunderstorm Clear
5:35 AM 79.3 °F - 64.4 °F 60% 29.82 in 10.0 mi Calm Calm - N/A   Clear
5:55 AM 80.4 °F 82.1 °F 64.2 °F 58% 29.84 in 10.0 mi East 11.5 mph - N/A   Scattered Clouds
6:15 AM 80.1 °F 82.1 °F 66.0 °F 62% 29.85 in 10.0 mi East 12.7 mph 18.4 mph N/A Thunderstorm Scattered Clouds
6:35 AM 77.9 °F - 67.1 °F 69% 29.85 in 10.0 mi East 9.2 mph 19.6 mph N/A   Scattered Clouds
6:55 AM 76.8 °F - 67.1 °F 72% 29.85 in 10.0 mi ENE 5.8 mph - N/A   Clear
7:15 AM 76.5 °F - 67.1 °F 73% 29.85 in 10.0 mi ESE 5.8 mph - N/A   Clear
7:35 AM 76.8 °F - 67.5 °F 73% 29.86 in 10.0 mi East 5.8 mph - N/A   Clear
8:15 AM 77.9 °F - 65.5 °F 65% 29.88 in 10.0 mi ESE 4.6 mph - N/A   Clear
8:55 AM 77.5 °F - 66.2 °F 68% 29.89 in 10.0 mi SSW 4.6 mph - N/A Thunderstorm Thunderstorm
9:15 AM 73.9 °F - 68.4 °F 83% 29.93 in 3.0 mi ENE 8.1 mph 19.6 mph 0.08 in Rain Heavy Rain
9:35 AM 72.7 °F - 69.4 °F 90% 30.02 in 2.5 mi NNW 15.0 mph 31.1 mph 0.16 in Rain , Thunderstorm Heavy Thunderstorms and Rain
9:55 AM 72.1 °F - 69.8 °F 92% 30.03 in 4.0 mi NNW 10.4 mph - 0.42 in Rain , Thunderstorm Thunderstorms and Rain
10:15 AM 71.6 °F - 68.9 °F 91% 30.03 in 5.0 mi NW 10.4 mph 16.1 mph 0.02 in Rain , Thunderstorm Heavy Thunderstorms and Rain
10:35 AM 70.7 °F - 68.4 °F 92% 30.03 in 4.0 mi NNW 5.8 mph 19.6 mph 0.14 in Rain , Thunderstorm Heavy Thunderstorms and Rain
10:55 AM 71.1 °F - 68.0 °F 90% 30.01 in 10.0 mi NE 6.9 mph - 0.23 in Rain , Thunderstorm Light Thunderstorms and Rain
11:15 AM 70.9 °F - 68.4 °F 92% 29.99 in 10.0 mi SSE 6.9 mph - 0.01 in Rain Light Rain
11:35 AM 71.1 °F - 68.5 °F 92% 29.97 in 10.0 mi South 6.9 mph - 0.03 in Rain , Thunderstorm Thunderstorms and Rain
11:55 AM 70.9 °F - 68.5 °F 92% 29.95 in 10.0 mi South 9.2 mph - 0.04 in Rain Light Rain
12:15 PM 71.4 °F - 68.7 °F 91% 29.94 in 10.0 mi South 8.1 mph - N/A Rain Light Rain
12:35 PM 72.9 °F - 68.0 °F 85% 29.94 in 10.0 mi South 3.5 mph - N/A   Scattered Clouds
12:55 PM 73.9 °F - 68.5 °F 83% 29.95 in 10.0 mi East 3.5 mph - N/A   Clear
1:15 PM 75.2 °F - 68.9 °F 81% 29.93 in 10.0 mi SSE 4.6 mph - N/A   Clear
1:35 PM 75.4 °F - 68.4 °F 79% 29.93 in 10.0 mi Calm Calm - N/A   Clear
1:55 PM 77.4 °F - 68.7 °F 75% 29.91 in 10.0 mi ESE 3.5 mph - N/A   Clear
2:15 PM 80.1 °F 83.0 °F 69.4 °F 70% 29.93 in 10.0 mi West 8.1 mph - N/A   Clear
2:35 PM 79.7 °F - 69.1 °F 70% 29.93 in 10.0 mi West 9.2 mph - N/A   Clear
3:15 PM 79.7 °F - 69.3 °F 70% 29.92 in 10.0 mi NNW 4.6 mph - N/A   Clear
3:35 PM 79.7 °F - 69.3 °F 70% 29.92 in 10.0 mi NNW 6.9 mph - N/A   Scattered Clouds
3:55 PM 79.7 °F - 69.1 °F 70% 29.91 in 10.0 mi NW 4.6 mph - N/A   Clear
4:15 PM 79.7 °F - 68.9 °F 69% 29.91 in 10.0 mi North 5.8 mph - N/A   Clear
4:35 PM 79.7 °F - 69.1 °F 70% 29.91 in 10.0 mi NNW 6.9 mph - N/A   Clear
4:55 PM 79.9 °F - 69.3 °F 70% 29.90 in 10.0 mi NNW 4.6 mph - N/A   Clear
5:15 PM 80.6 °F 83.5 °F 68.5 °F 67% 29.89 in 10.0 mi WNW 4.6 mph - N/A   Clear
5:35 PM 81.5 °F 84.6 °F 68.7 °F 65% 29.88 in 10.0 mi NW 3.5 mph - N/A   Clear
5:55 PM 82.0 °F 85.3 °F 68.7 °F 64% 29.88 in 10.0 mi NW 4.6 mph - N/A   Clear
6:15 PM 82.0 °F 85.1 °F 68.2 °F 63% 29.87 in 10.0 mi NW 5.8 mph - N/A   Clear
6:35 PM 81.9 °F 85.2 °F 68.9 °F 65% 29.87 in 10.0 mi North 3.5 mph - N/A   Clear
6:55 PM 81.9 °F 85.2 °F 69.3 °F 65% 29.86 in 10.0 mi Calm Calm - N/A   Clear
7:15 PM 82.4 °F 86.1 °F 69.6 °F 65% 29.86 in 10.0 mi Calm Calm - N/A   Clear
7:35 PM 82.6 °F 86.4 °F 69.6 °F 65% 29.86 in 10.0 mi Calm Calm - N/A   Clear
7:55 PM 82.9 °F 87.0 °F 70.0 °F 65% 29.86 in 10.0 mi Calm Calm - N/A   Clear
8:15 PM 82.2 °F 86.4 °F 70.7 °F 68% 29.86 in 10.0 mi Calm Calm - N/A   Clear
8:35 PM 81.5 °F 85.3 °F 70.3 °F 69% 29.85 in 10.0 mi Calm Calm - N/A   Clear
8:55 PM 80.2 °F 83.5 °F 70.0 °F 71% 29.86 in 10.0 mi Calm Calm - N/A   Clear
9:15 PM 77.5 °F - 72.0 °F 83% 29.86 in 10.0 mi Calm Calm - N/A   Clear
9:35 PM 76.3 °F - 72.0 °F 86% 29.86 in 10.0 mi Calm Calm - N/A   Clear
9:55 PM 75.9 °F - 72.9 °F 90% 29.87 in 10.0 mi Calm Calm - N/A   Clear
10:15 PM 76.1 °F - 72.9 °F 90% 29.87 in 10.0 mi Calm Calm - N/A   Clear
10:35 PM 75.2 °F - 72.1 °F 90% 29.87 in 10.0 mi Calm Calm - N/A   Clear
10:55 PM 75.2 °F - 72.7 °F 92% 29.88 in 10.0 mi Calm Calm - N/A   Clear
11:15 PM 74.3 °F - 71.8 °F 92% 29.88 in 10.0 mi Calm Calm - N/A   Clear
11:35 PM 73.6 °F - 71.6 °F 93% 29.88 in 10.0 mi Calm Calm - N/A   Clear